This is the latest recevied weather packets stored in our database for station/object W2JGA. If no packets are shown the sender has not sent any weather packets the latest 10 day(s).
| Time | Temp. | Humidity | Pressure | Rain* | Wind** | Luminosity | Snow |
|---|---|---|---|---|---|---|---|
| 1777770947 | 29.44° C | 27% | 1013.6 hPa | 0 mm | - | 44 W/m² | - |
| 1777770644 | 29.44° C | 27% | 1013.9 hPa | 0 mm | - | 46 W/m² | - |
| 1777770340 | 29.44° C | 27% | 1013.9 hPa | 0 mm | - | 65 W/m² | - |
| 1777770038 | 29.44° C | 27% | 1013.9 hPa | 0 mm | - | 90 W/m² | - |
| 1777769735 | 30° C | 27% | 1013.9 hPa | 0 mm | - | 110 W/m² | - |
| 1777769432 | 30° C | 27% | 1013.9 hPa | 0 mm | - | 115 W/m² | - |
| 1777769128 | 30° C | 27% | 1013.9 hPa | 0 mm | - | 88 W/m² | - |
| 1777768826 | 30° C | 26% | 1013.6 hPa | 0 mm | - | 113 W/m² | - |
| 1777768523 | 30° C | 24% | 1013.6 hPa | 0 mm | - | 217 W/m² | - |
| 1777768220 | 30° C | 25% | 1013.9 hPa | 0 mm | - | 171 W/m² | - |
| 1777767917 | 30° C | 25% | 1013.6 hPa | 0 mm | - | 148 W/m² | - |
| 1777767614 | 30° C | 25% | 1013.6 hPa | 0 mm | - | 121 W/m² | - |
| 1777767310 | 30° C | 25% | 1013.9 hPa | 0 mm | - | 121 W/m² | - |
| 1777767008 | 31.11° C | 25% | 1013.9 hPa | 0 mm | - | 188 W/m² | - |
| 1777766705 | 30.56° C | 24% | 1013.6 hPa | 0 mm | - | 308 W/m² | - |
| 1777766402 | 30.56° C | 24% | 1013.9 hPa | 0 mm | - | 344 W/m² | - |
| 1777766098 | 30.56° C | 25% | 1013.6 hPa | 0 mm | - | 314 W/m² | - |
| 1777765796 | 30.56° C | 25% | 1013.6 hPa | 0 mm | - | 346 W/m² | - |
| 1777765492 | 30.56° C | 25% | 1013.9 hPa | 0 mm | - | 373 W/m² | - |
| 1777765190 | 30.56° C | 25% | 1013.9 hPa | 0 mm | - | 321 W/m² | - |
| 1777764884 | 31.11° C | 25% | 1013.9 hPa | 0 mm | - | 285 W/m² | - |
| 1777764582 | 30.56° C | 25% | 1013.9 hPa | 0 mm | - | 344 W/m² | - |
| 1777764278 | 31.11° C | 24% | 1013.9 hPa | 0 mm | - | 394 W/m² | - |
| 1777763975 | 31.67° C | 24% | 1013.9 hPa | 0 mm | - | 527 W/m² | - |
| 1777763672 | 30.56° C | 24% | 1013.9 hPa | 0 mm | - | 574 W/m² | - |
* Rain latest hour (hover to see other rain measurements)
** Current wind speed in m/s (hover to see current wind gust speed)